Tracking 35237 objects as of 5-Sep-2026
HD Live streaming from Space Station
objects crossing your sky now

SL-11 R/B


SL-11 R/B is no longer on orbit


NORAD ID: 15168
Int'l Code: 1984-083B
Launch date: August 7, 1984
Source: Commonwealth of Independent States (former USSR) (CIS)
Launch site: TYURATAM MISSILE AND SPACE COMPLEX (TTMTR)
Decay date: 1984-08-08

Note: This is a ROCKET BODY
Your satellite tracking list
Your tracking list is empty




NASA's NSSDC Master Catalog

Two Line Element Set (TLE):
1 15168U 84083  B 84221.37892597  .41990882 +32171-4 +38020-3 0  9996
2 15168 064.9886 332.6163 0130106 054.4108 307.9560 16.30487038000078
Source of the keplerian elements: AFSPC